Wind_Speed
14 13 13 13 13 14 14 13 13 13 13 11 13 12 13 12 12 12 12 13 13 13 13 14 14 15 16 16 16 16 15 14 14 14 14 14 14 13 13 13 13 13 12 12
13 14 14 14 13 13 14 14 14 14 13 12 14 14 14 13 13 13 13 13 13 13 13 13 14 15 15 16 16 16 15 15 15 14 14 14 14 13 14 14 14 15 13 13
14 14 15 16 14 14 14 14 14 14 13 14 14 14 14 14 14 14 14 14 14 14 13 14 14 15 15 15 15 16 16 15 16 15 14 14 14 15 15 15 14 14 14 14
16 15 16 14 13 13 14 14 14 14 15 15 15 14 14 14 14 14 14 14 15 15 15 15 15 15 15 16 16 16 16 15 15 15 15 15 15 16 16 15 15 15 15 15
16 16 16 15 14 14 15 15 14 14 16 17 16 16 14 14 14 14 14 15 16 16 16 15 15 15 16 16 17 16 16 16 16 15 15 15 15 16 16 16 16 16 17 17
17 17 17 16 15 14 15 16 15 15 15 16 16 17 15 13 14 14 15 15 15 16 16 16 16 16 16 16 16 17 16 16 16 16 16 15 15 15 15 15 16 17 18 19
18 18 18 17 16 15 15 16 15 16 15 15 16 16 15 15 14 14 15 15 15 16 16 17 16 16 16 17 17 17 17 16 16 16 16 16 16 15 16 16 17 17 19 19
20 20 20 18 17 16 16 16 16 17 17 17 17 16 16 16 15 14 15 15 15 15 16 16 16 16 16 16 16 16 17 17 17 17 16 16 16 17 17 18 19 19 19 20
20 20 18 18 17 17 18 17 17 17 17 17 16 17 17 17 16 16 16 15 15 15 16 17 17 17 17 17 17 17 17 18 18 17 17 17 18 19 19 19 20 20 20 20
21 20 19 18 17 17 18 18 17 17 16 16 17 17 17 17 17 17 16 16 16 16 17 18 18 18 17 17 17 18 18 19 19 19 19 18 19 19 20 20 20 21 21 21
21 21 20 19 18 18 18 17 17 17 17 17 17 16 16 17 17 17 17 16 17 17 18 19 18 19 18 18 18 18 19 20 20 20 20 20 20 21 21 22 22 22 22 22
22 22 22 21 19 19 19 18 18 17 17 17 16 16 17 17 17 17 17 17 17 17 17 18 18 18 18 19 19 19 19 19 20 20 21 21 21 22 22 23 24 24 23 23
24 23 23 21 21 21 20 19 19 18 18 18 17 17 17 17 17 17 17 18 17 17 18 17 18 18 18 19 19 19 19 19 20 21 22 22 22 22 23 24 25 25 25 26
25 24 24 22 22 22 21 20 19 19 19 18 18 18 18 18 18 18 18 19 18 19 19 19 19 19 19 19 20 20 21 22 22 22 23 23 23 23 24 24 25 26 26 27
26 26 25 24 24 23 23 22 21 20 20 19 19 19 19 19 20 19 19 19 19 19 19 19 20 20 20 20 21 22 22 23 23 23 24 24 24 25 25 25 26 26 27 27
29 28 27 26 25 25 24 23 23 22 22 21 21 20 20 20 20 20 20 20 20 19 19 20 20 20 21 22 22 23 23 24 25 25 25 25 26 26 26 26 27 28 28 28
30 29 28 27 27 26 25 24 24 23 23 23 22 22 21 20 20 20 20 20 21 21 21 21 22 22 22 23 23 23 24 24 25 25 25 26 26 26 27 27 28 28 28 29
30 30 29 28 27 27 26 25 25 25 24 24 23 23 22 22 22 22 22 22 22 22 22 23 23 23 24 24 24 24 24 25 26 26 27 27 27 27 28 28 28 29 29 30
29 30 29 29 28 27 26 26 26 26 25 24 23 23 23 23 23 22 22 22 22 22 22 23 23 23 23 24 24 24 24 25 27 27 27 27 28 28 28 29 29 29 30 30
29 29 29 29 28 28 27 27 27 27 26 25 24 24 24 24 24 24 23 23 23 23 23 23 23 23 23 23 24 25 25 26 27 27 28 29 29 30 30 30 30 31 32 33
28 28 28 29 29 28 27 28 28 27 26 26 26 26 26 26 26 26 25 25 25 25 25 24 24 24 24 25 25 26 27 27 27 27 28 28 29 30 31 32 32 33 33 34
27 27 27 28 28 28 27 28 28 28 27 27 26 26 26 27 27 27 27 26 26 27 27 26 26 26 26 26 27 27 28 28 28 29 29 30 31 31 32 33 33 34 35 35
28 27 27 28 28 28 28 28 28 28 28 28 27 27 27 27 27 27 27 27 27 27 27 27 27 28 28 28 28 29 29 29 29 30 31 31 31 32 33 34 34 35 36 36
28 28 28 28 28 28 28 28 28 28 28 28 28 28 28 28 27 27 28 28 28 28 28 29 29 29 29 29 29 30 30 30 31 31 31 32 33 33 34 35 36 36 37 38
29 29 29 29 28 28 28 27 27 28 28 28 28 28 28 29 29 29 29 29 29 30 30 30 30 29 29 29 29 30 31 31 32 32 33 33 34 35 36 36 37 38 38 38
29 29 29 29 29 29 28 28 28 28 28 28 28 28 28 29 29 30 30 30 30 30 29 29 30 30 30 30 30 31 31 32 33 33 34 35 36 37 38 38 38 39 39 39
29 29 29 29 29 30 30 29 29 29 29 29 29 29 30 30 30 30 30 29 29 30 30 30 30 30 31 31 32 32 32 33 34 35 35 36 36 37 37 38 38 39 39 39
Wind_Direction
238 243 251 248 245 243 239 238 241 244 247 249 256 257 256 254 246 238 237 240 238 235 236 239 240 240 240 241 239 238 239 241 245 249 254 257 257 258 261 261 265 267 268 269
238 242 248 249 247 245 242 241 240 242 245 246 255 256 255 253 250 244 241 243 242 240 241 241 242 243 242 241 238 238 239 241 244 247 251 254 256 260 263 263 266 265 264 268
238 245 249 247 250 246 244 244 244 240 241 246 252 258 258 254 251 249 244 245 245 242 243 244 245 244 242 239 238 237 239 242 243 246 251 253 256 262 263 263 264 259 262 268
236 241 247 252 253 247 249 249 246 244 242 248 255 259 260 256 254 251 248 246 246 246 246 249 247 244 242 238 236 237 240 241 243 245 249 253 257 261 263 264 263 263 265 268
235 238 247 254 255 249 251 251 247 245 246 249 254 258 258 255 253 250 249 249 248 247 246 247 247 245 241 238 237 240 244 244 244 246 249 253 257 261 262 264 265 265 266 268
240 242 245 249 256 254 251 249 246 249 253 254 256 258 260 257 252 253 253 252 250 248 245 245 247 246 240 238 240 242 245 245 245 247 249 252 256 262 265 267 270 269 267 269
241 243 245 249 253 252 248 246 249 254 256 255 255 260 261 257 254 255 255 255 253 250 247 246 246 246 244 242 243 243 243 244 245 246 249 253 256 261 267 270 272 274 272 270
241 242 245 251 253 250 250 252 255 256 258 257 256 258 258 256 254 256 255 257 255 251 247 247 248 247 244 244 245 244 243 243 245 247 251 255 258 264 270 273 274 275 277 273
244 246 248 252 252 249 249 253 256 256 257 257 256 258 257 256 256 255 256 257 253 251 250 250 250 248 246 246 246 245 245 244 244 248 252 258 262 267 270 274 275 276 278 278
243 244 245 249 249 249 250 251 252 254 255 256 254 255 255 255 255 255 256 255 252 252 253 253 251 249 249 250 249 246 247 248 248 252 257 261 266 270 273 274 276 279 280 280
242 244 244 246 247 248 249 250 252 253 254 255 256 256 255 253 254 254 251 252 254 257 255 253 251 249 249 252 254 253 254 252 252 254 259 263 268 270 273 275 277 279 281 283
242 243 245 247 247 247 248 249 251 252 254 256 256 256 255 254 255 255 252 253 255 258 256 254 251 251 252 252 253 253 255 256 256 258 263 267 270 273 274 277 277 277 280 283
242 242 244 247 248 247 247 248 249 251 254 256 256 256 256 255 255 255 255 257 258 259 257 256 252 253 255 256 253 252 255 258 259 261 265 269 272 274 277 279 278 278 279 281
241 242 243 246 247 246 246 247 249 251 253 254 255 256 255 255 254 256 259 260 260 260 259 258 255 254 257 258 255 255 257 259 261 265 267 271 273 275 277 279 280 280 280 280
241 243 244 246 246 246 246 246 249 252 253 254 255 255 254 255 256 257 257 258 258 258 257 258 260 259 258 258 259 259 261 263 264 266 269 272 275 277 278 280 280 281 281 281
240 242 244 245 247 246 245 247 250 252 251 253 254 254 254 255 257 256 256 257 258 258 259 259 259 259 259 260 262 264 264 265 266 267 270 273 276 277 278 280 281 282 282 283
242 242 244 246 246 245 245 247 249 250 250 252 254 256 256 256 257 256 257 258 259 260 262 262 262 264 263 264 265 265 266 268 269 269 271 273 275 277 278 280 282 283 284 285
243 243 244 245 245 245 245 246 248 250 252 253 255 256 256 257 259 259 260 261 262 263 264 264 264 265 266 267 267 267 267 268 270 271 273 275 276 278 280 282 284 285 286 286
242 243 244 245 244 244 244 245 247 250 253 254 255 255 255 257 258 260 261 263 265 265 265 266 266 266 267 269 268 268 269 270 270 272 273 275 277 279 281 283 285 286 287 288
242 242 243 244 244 244 244 245 248 250 252 252 254 255 256 257 259 259 260 262 264 266 266 267 268 269 270 271 270 271 271 272 272 273 274 275 277 279 281 282 284 286 287 288
241 241 241 242 243 244 244 246 248 250 251 251 253 254 256 258 260 261 262 263 264 265 266 268 270 271 271 272 273 274 274 274 275 276 276 277 278 280 280 282 284 285 287 289
241 241 241 242 243 244 245 246 247 248 249 252 253 255 256 258 260 262 262 263 264 266 267 268 270 271 272 273 274 275 275 276 277 278 278 279 279 280 282 284 285 286 288 289
240 240 241 243 245 246 247 247 248 248 250 252 254 256 257 259 261 262 262 263 265 267 268 268 270 271 272 273 275 275 276 277 277 278 279 280 281 282 284 285 286 287 288 289
241 241 242 244 246 248 248 249 248 249 251 253 254 255 257 259 261 262 264 264 264 266 267 269 271 273 274 274 275 276 276 276 277 279 280 281 283 285 287 288 288 289 289 290
241 242 244 245 246 248 248 248 248 250 252 253 255 257 259 260 261 263 264 263 264 265 268 270 271 273 274 275 275 276 276 277 277 278 280 282 283 285 287 288 289 290 291 291
242 243 243 244 246 248 249 249 249 250 252 254 255 258 260 261 262 264 264 264 265 266 268 269 271 273 274 275 276 277 278 278 278 279 281 282 284 286 287 288 289 291 291 292
242 243 244 245 246 247 248 248 249 251 253 254 256 258 260 262 263 265 265 265 266 267 268 269 271 273 275 276 277 278 279 280 281 282 283 285 287 288 288 289 290 291 292 292
Height
5803 5804 5805 5806 5808 5809 5810 5811 5813 5814 5814 5815 5817 5818 5818 5819 5821 5823 5824 5826 5828 5829 5831 5833 5834 5836 5838 5840 5842 5845 5847 5849 5850 5852 5853 5854 5855 5856 5857 5858 5858 5859 5859 5860
5800 5801 5802 5803 5805 5806 5807 5809 5810 5811 5813 5813 5814 5815 5816 5817 5818 5820 5821 5823 5825 5826 5828 5829 5831 5833 5834 5836 5839 5841 5843 5845 5847 5848 5849 5850 5851 5853 5853 5854 5855 5855 5856 5856
5797 5798 5799 5800 5802 5803 5804 5806 5807 5809 5811 5810 5811 5812 5813 5814 5815 5816 5818 5819 5821 5823 5824 5825 5827 5829 5831 5833 5835 5837 5839 5841 5843 5844 5846 5847 5848 5849 5850 5850 5851 5852 5852 5853
5794 5796 5796 5799 5799 5800 5801 5803 5804 5806 5806 5807 5808 5808 5809 5810 5811 5813 5814 5816 5817 5819 5821 5822 5823 5825 5827 5829 5831 5833 5835 5837 5839 5841 5842 5843 5844 5845 5846 5847 5847 5848 5848 5849
5790 5791 5793 5795 5796 5797 5798 5800 5801 5802 5803 5803 5804 5805 5806 5807 5808 5809 5810 5812 5813 5815 5817 5818 5819 5821 5823 5825 5827 5829 5832 5833 5835 5837 5838 5839 5841 5841 5842 5843 5843 5843 5844 5844
5786 5787 5789 5792 5792 5793 5795 5796 5797 5798 5799 5800 5800 5801 5803 5803 5804 5805 5807 5808 5809 5811 5812 5814 5816 5817 5819 5821 5823 5825 5827 5829 5831 5832 5834 5835 5836 5837 5838 5839 5839 5839 5839 5839
5781 5783 5784 5787 5788 5790 5792 5793 5793 5794 5795 5796 5797 5798 5799 5800 5801 5802 5803 5804 5805 5807 5808 5810 5812 5813 5815 5817 5819 5821 5823 5825 5826 5828 5830 5831 5832 5833 5833 5834 5834 5834 5834 5834
5777 5779 5782 5783 5784 5786 5787 5788 5789 5790 5791 5792 5793 5794 5795 5796 5797 5798 5799 5800 5801 5802 5804 5806 5807 5809 5811 5813 5815 5817 5819 5820 5822 5824 5825 5826 5827 5828 5829 5829 5829 5829 5829 5829
5773 5776 5777 5778 5780 5781 5782 5784 5785 5786 5787 5788 5789 5790 5791 5792 5793 5794 5795 5796 5797 5798 5800 5801 5803 5805 5807 5808 5810 5812 5814 5816 5818 5819 5821 5822 5823 5823 5823 5824 5824 5824 5823 5823
5768 5770 5772 5773 5775 5776 5778 5779 5780 5781 5782 5783 5784 5785 5786 5787 5789 5790 5790 5791 5793 5794 5795 5797 5798 5800 5802 5804 5805 5807 5809 5811 5813 5814 5816 5817 5817 5818 5818 5818 5818 5818 5817 5817
5762 5765 5767 5769 5770 5772 5773 5774 5776 5777 5778 5779 5780 5781 5782 5783 5784 5785 5786 5787 5788 5789 5790 5792 5793 5795 5797 5799 5800 5802 5804 5806 5807 5809 5810 5811 5812 5812 5812 5812 5812 5811 5811 5810
5758 5760 5762 5764 5765 5767 5769 5770 5771 5772 5773 5774 5775 5776 5777 5778 5780 5781 5782 5783 5784 5785 5786 5787 5788 5790 5792 5794 5795 5797 5798 5800 5801 5803 5804 5805 5805 5806 5805 5805 5805 5805 5804 5804
5751 5753 5756 5758 5760 5761 5763 5765 5766 5768 5769 5770 5771 5772 5773 5774 5775 5776 5777 5778 5779 5780 5781 5782 5784 5785 5787 5788 5790 5791 5793 5794 5796 5797 5798 5799 5799 5799 5799 5799 5798 5797 5797 5796
5745 5748 5750 5752 5754 5756 5758 5759 5761 5763 5764 5765 5766 5767 5768 5769 5770 5771 5772 5773 5774 5775 5776 5777 5779 5780 5781 5783 5784 5786 5787 5789 5790 5791 5791 5792 5792 5792 5792 5791 5791 5790 5789 5788
5739 5741 5744 5746 5748 5750 5752 5754 5756 5757 5759 5760 5761 5762 5763 5764 5765 5766 5767 5768 5769 5770 5771 5772 5774 5775 5776 5777 5779 5780 5781 5782 5783 5784 5784 5785 5785 5785 5784 5784 5783 5782 5781 5780
5732 5734 5737 5740 5742 5744 5746 5748 5750 5752 5753 5754 5755 5757 5758 5759 5760 5761 5762 5763 5764 5765 5766 5767 5768 5769 5770 5772 5773 5774 5775 5775 5776 5777 5777 5777 5777 5777 5777 5776 5775 5774 5773 5772
5724 5727 5730 5733 5735 5737 5740 5742 5743 5745 5747 5748 5749 5751 5752 5753 5754 5755 5756 5758 5758 5759 5761 5762 5763 5763 5764 5765 5766 5767 5768 5768 5769 5769 5770 5770 5770 5769 5769 5768 5767 5766 5765 5763
5717 5720 5723 5726 5728 5731 5733 5735 5737 5739 5741 5742 5743 5745 5746 5747 5749 5750 5751 5752 5753 5754 5755 5756 5757 5757 5758 5759 5759 5760 5761 5761 5761 5761 5762 5762 5761 5761 5760 5759 5758 5757 5756 5754
5709 5713 5716 5718 5721 5724 5726 5728 5730 5732 5734 5736 5737 5738 5740 5741 5742 5744 5745 5746 5747 5748 5749 5749 5750 5750 5751 5752 5752 5753 5753 5753 5754 5754 5754 5753 5753 5753 5752 5751 5750 5748 5747 5745
5702 5705 5708 5711 5713 5716 5719 5721 5723 5725 5727 5729 5730 5732 5733 5735 5736 5737 5738 5739 5740 5741 5742 5742 5743 5744 5744 5744 5745 5745 5746 5746 5746 5745 5745 5745 5744 5744 5743 5741 5740 5739 5737 5736
5695 5698 5700 5703 5706 5709 5711 5714 5716 5718 5720 5722 5723 5725 5726 5728 5729 5730 5731 5732 5733 5734 5734 5735 5736 5736 5737 5737 5737 5738 5738 5737 5737 5737 5736 5736 5735 5734 5733 5732 5731 5729 5727 5725
5688 5691 5693 5696 5699 5701 5704 5706 5708 5710 5712 5714 5716 5717 5719 5720 5721 5723 5724 5725 5725 5726 5727 5727 5728 5728 5729 5729 5729 5729 5729 5729 5728 5728 5727 5726 5726 5725 5723 5722 5720 5719 5717 5715
5680 5683 5686 5689 5691 5694 5696 5698 5701 5703 5705 5706 5708 5710 5711 5713 5714 5715 5716 5717 5717 5718 5719 5719 5719 5720 5720 5720 5720 5720 5720 5719 5719 5718 5717 5716 5715 5714 5713 5711 5709 5707 5705 5703
5673 5676 5678 5681 5684 5686 5688 5690 5693 5695 5697 5698 5700 5702 5703 5705 5706 5707 5708 5708 5709 5710 5710 5710 5710 5711 5711 5711 5711 5710 5710 5709 5709 5708 5707 5706 5705 5704 5702 5700 5698 5696 5694 5691
5665 5668 5671 5673 5676 5678 5680 5682 5685 5687 5688 5690 5692 5693 5695 5696 5698 5698 5699 5700 5700 5701 5701 5702 5702 5702 5702 5701 5701 5700 5700 5699 5698 5698 5697 5696 5694 5693 5691 5689 5687 5684 5682 5679
5657 5660 5663 5665 5668 5670 5672 5675 5677 5679 5681 5682 5684 5685 5686 5688 5689 5689 5690 5691 5692 5692 5692 5692 5693 5693 5692 5692 5691 5690 5690 5689 5688 5687 5686 5685 5683 5681 5679 5677 5675 5672 5670 5667
5649 5652 5654 5657 5660 5662 5664 5666 5668 5670 5672 5674 5675 5677 5678 5679 5680 5681 5681 5682 5682 5683 5683 5683 5683 5683 5682 5682 5681 5680 5680 5679 5678 5676 5675 5673 5672 5670 5667 5665 5663 5660 5658 5655